{"data":{"norad_id":57345,"epoch":"2026-05-24T20:09:33.313824Z","epoch_age_seconds":85911,"freshness":"FRESH","line1":"1 57345U 23099T   26144.83996891  .00000475  00000+0  26805-4 0  9997","line2":"2 57345  43.0020 185.6685 0002028 282.3323  77.7302 15.27578025157684","mean_motion":15.27578025,"eccentricity":0.0002028,"inclination_deg":43.002,"raan_deg":185.6685,"arg_perigee_deg":282.3323,"mean_anomaly_deg":77.7302,"bstar":2.6805e-5,"rev_number":15768,"period_min":94.266870590784,"perigee_km":481.66356016692,"apogee_km":484.44645964614,"semimajor_km":6861.1920099065,"source":"CELESTRAK","updated_at":"2026-05-25T13:38:18.289122Z"}}